SCP
-0 0 0 0 0 0 0 0 0 -0 0 0 0 0 0 0 -0 -0 -0 -0 -0 -0 -0 -0 -0 -0 -0 -0 -0 0 0 0 0 0 0 0 0 0 0 0 -0 -0 -0 0
-0 -0 0 0 0 0 0 0 -0 0 0 0 0 0 0 -0 -0 -0 -0 -0 -0 -0 -0 -0 -0 -0 -0 -0 -0 -0 -0 0 0 0 0 0 0 0 0 0 0 0 -0 -0
0 0 -0 0 0 0 0 0 0 0 0 0 0 0 -0 -0 -0 -0 -0 -0 -0 -0 -0 -0 -0 -0 -0 -0 -0 -0 -0 -0 0 0 0 0 0 0 0 0 0 0 0 0
0 0 0 -0 -0 0 0 0 0 0 0 0 0 0 -0 -0 -0 -0 -0 -0 -0 -0 -0 -0 -0 -0 -0 -0 -0 -0 -0 -0 0 0 0 0 0 0 0 0 0 0 0 0
0 0 0 0 0 0 0 0 0 0 0 0 0 0 0 -0 -0 -0 -0 -0 -0 -0 -0 -0 -0 -0 -0 -0 -0 -0 -0 -0 -0 0 0 0 0 0 0 0 0 0 0 0
0 0 0 0 0 0 0 0 0 0 0 0 0 0 -0 0 -0 -0 -0 -0 -0 -0 -0 -0 -0 -0 -0 -0 -0 -0 -0 -0 -0 -0 0 0 0 0 0 0 0 0 0 0
0 0 0 0 0 0 0 0 0 0 0 0 0 0 0 0 -0 -0 -0 -0 -0 -0 -0 -0 -0 -0 -0 -0 -0 -0 -0 -0 -0 -0 -0 0 0 0 0 0 0 0 0 0
0 0 0 0 0 0 0 0 0 0 0 0 0 0 0 0 0 0 -0 -0 -0 -0 -0 -0 -0 -0 -0 -0 -0 -0 -0 -0 -0 -0 -0 -0 -0 0 0 0 0 0 0 -0
0 0 0 0 0 0 0 0 0 0 0 0 0 0 0 0 0 0 -0 -0 -0 -0 -0 -0 -0 -0 -0 -0 -0 -0 -0 -0 -0 -0 0 -0 -0 0 0 0 0 0 0 0
0 0 0 0 0 0 0 0 0 0 0 0 0 0 0 0 0 0 0 0 -0 -0 -0 -0 -0 -0 -0 -0 -0 -0 -0 -0 -0 -0 0 0 0 0 0 0 0 0 0 -0
0 0 0 0 0 0 0 0 0 0 0 0 0 0 0 0 0 0 0 0 0 -0 0 -0 -0 -0 -0 -0 -0 0 -0 -0 0 -0 -0 0 0 0 0 0 0 0 0 -0
0 0 0 0 0 0 0 0 0 0 0 0 0 0 0 0 0 0 0 0 0 0 0 0 -0 -0 -0 -0 0 0 0 0 0 0 0 0 0 0 0 0 -0 -0 -0 -0
-0 0 0 0 0 0 0 0 0 0 0 0 0 0 0 0 0 0 0 0 0 0 0 0 -0 0 0 -0 -0 0 0 0 0 0 0 0 0 0 0 0 -0 0 0 -0
-0 -0 0 0 0 0 0 0 0 0 0 0 0 0 0 0 0 0 0 0 0 0 0 0 0 0 0 0 0 0 0 0 0 0 0 0 0 0 0 0 0 -0 -0 -0
0 -0 0 0 0 0 0 0 0 0 0 0 0 0 0 0 0 0 0 0 0 0 0 0 0 0 0 0 0 0 0 0 0 0 0 0 0 0 0 0 0 0 0 0
-0 0 0 0 0 0 0 0 0 0 0 0 0 0 0 0 0 0 0 0 0 0 0 0 0 0 0 0 0 0 0 0 0 0 0 0 0 0 0 0 0 0 0 0
-0 -0 -0 0 0 0 0 0 0 0 0 0 0 0 0 0 0 0 0 0 0 0 0 0 0 0 0 0 0 0 0 0 0 0 0 0 0 0 0 0 0 0 0 0
-0 -0 -0 0 0 0 0 0 0 0 0 0 0 0 0 0 0 0 0 0 0 0 -0 0 0 0 0 0 0 0 0 0 0 0 0 0 0 0 0 0 0 0 0 0
0 0 -0 0 0 0 0 0 0 0 0 0 0 0 0 0 0 0 0 0 0 0 -0 0 0 0 0 0 0 0 0 0 0 0 0 0 0 0 0 0 0 0 0 0
0 0 0 0 0 0 0 0 0 0 0 0 0 0 0 0 0 0 0 0 0 0 -0 -0 0 0 0 0 0 0 0 0 0 0 0 0 0 0 0 0 0 0 0 0
0 0 0 0 0 0 0 0 0 0 0 0 0 0 0 0 0 0 0 0 0 0 -0 -0 0 0 0 0 0 0 0 0 0 0 0 0 0 0 0 0 0 0 0 0
0 0 0 0 0 0 0 0 0 0 0 0 0 0 0 0 0 0 0 0 0 0 0 0 0 0 0 0 0 0 0 0 0 0 0 0 0 0 0 0 0 0 0 0
0 0 0 0 0 0 0 0 0 0 0 0 0 0 0 0 0 0 0 0 0 0 0 0 0 0 0 0 0 0 0 0 0 0 0 0 0 0 0 0 0 0 0 0
-0 0 0 0 0 0 0 0 0 0 0 0 0 0 0 0 0 0 0 0 0 -0 0 0 0 0 0 0 0 0 0 0 0 0 0 0 0 0 0 0 0 0 0 0
-0 -0 -0 0 0 0 0 0 0 0 0 0 0 0 0 0 0 0 0 0 0 0 0 0 0 0 0 0 0 0 0 0 0 0 0 0 0 0 0 0 0 0 0 0
-0 -0 -0 -0 0 0 0 0 0 0 0 0 0 0 0 0 0 0 0 0 0 0 0 0 0 0 0 0 0 0 0 0 0 0 0 0 0 0 0 0 0 0 0 0
-0 -0 0 -0 0 0 0 0 0 0 0 0 0 0 0 0 0 0 0 0 0 0 0 0 0 0 0 0 0 0 0 0 0 0 0 0 0 0 0 0 0 0 0 0
Wind_Speed_500mb
35 40 17 8 23 45 36 27 31 28 18 18 23 24 26 51 55 57 62 69 73 69 67 61 59 51 39 29 34 29 17 14 13 13 17 16 15 17 18 21 21 22 20 21
13 35 47 36 11 41 45 29 24 14 16 18 23 28 30 52 58 58 70 75 74 69 69 66 61 55 46 35 37 35 24 18 16 18 24 20 16 17 17 17 19 18 23 14
11 27 17 29 53 24 25 37 35 31 23 15 9 24 34 46 62 69 77 78 77 76 72 69 63 56 52 44 35 38 31 24 17 27 27 23 18 17 17 17 16 17 22 15
10 4 22 37 23 35 23 16 28 7 21 30 29 55 73 86 91 79 77 79 75 75 72 70 63 57 52 50 40 39 39 32 24 31 29 26 22 19 16 15 15 16 15 15
6 8 10 14 7 24 19 25 21 34 17 23 47 37 18 74 87 89 85 78 72 70 66 69 67 60 58 57 48 44 45 38 32 28 35 31 25 21 16 12 16 20 20 21
4 8 15 11 28 5 11 26 18 28 20 20 30 23 15 76 84 88 86 78 73 71 71 69 70 65 64 61 57 51 48 39 35 28 40 36 29 24 18 13 13 17 19 21
11 8 8 36 40 26 25 5 38 41 36 25 25 32 72 72 87 90 84 83 77 72 72 73 72 69 70 66 62 49 44 41 37 31 40 41 36 30 26 20 14 18 18 19
8 9 6 43 15 15 22 55 51 48 54 57 74 63 64 62 80 87 91 83 80 75 73 74 75 73 74 71 57 51 51 45 42 38 40 43 41 38 32 26 20 22 25 23
7 5 3 37 18 39 47 46 52 54 40 70 84 62 64 66 76 86 91 88 85 81 76 75 77 77 77 71 64 56 57 50 46 44 38 44 44 45 41 34 30 30 29 30
12 3 21 43 36 58 58 55 60 49 37 39 64 68 62 61 81 85 85 87 90 86 79 76 77 79 74 70 66 60 59 54 49 50 48 44 43 44 45 43 38 38 38 33
11 19 37 10 63 70 76 79 81 62 48 11 50 65 68 68 77 79 78 83 91 93 84 75 74 81 80 75 70 67 62 58 53 53 55 50 45 43 41 43 40 43 44 39
3 31 22 34 63 72 73 87 85 66 62 35 18 50 69 69 73 76 75 81 89 95 85 77 74 81 80 80 74 70 70 65 59 57 60 59 53 49 46 35 37 36 37 37
8 32 43 58 52 38 67 69 70 55 48 49 25 24 20 71 76 75 72 77 86 94 85 77 76 79 78 80 77 76 73 68 64 61 60 62 62 56 50 42 39 38 39 43
26 32 36 43 39 56 59 57 57 53 44 49 33 20 18 32 57 67 73 66 78 92 88 76 77 75 71 77 80 79 74 67 64 64 62 62 63 59 54 47 46 47 48 51
16 25 40 58 60 54 49 44 58 63 62 60 41 32 21 20 34 49 61 61 79 90 84 79 76 72 70 73 81 82 80 75 71 65 62 61 62 64 60 56 50 45 45 52
40 39 30 37 53 44 44 38 52 58 59 52 45 40 23 17 22 38 45 50 64 85 86 82 70 67 71 70 76 82 81 75 73 72 69 66 65 68 68 64 58 52 47 48
30 23 20 29 47 48 43 39 41 43 48 39 57 48 26 11 21 28 24 45 53 76 84 74 64 65 66 66 70 76 79 80 79 77 75 71 68 67 67 68 65 60 51 46
43 45 40 48 53 46 52 36 41 39 33 35 44 53 46 31 12 15 14 32 49 67 79 70 67 62 58 65 67 70 72 72 76 78 77 77 75 70 67 66 66 65 56 49
39 45 41 44 50 49 50 42 48 35 26 28 35 46 43 38 34 3 8 15 18 44 74 78 65 55 52 53 61 67 67 67 70 73 73 74 74 70 67 66 67 66 62 57
44 43 40 43 50 38 44 48 48 35 24 25 28 33 39 33 35 26 12 26 8 27 58 81 74 60 53 49 52 59 57 61 64 64 64 65 68 69 68 67 66 65 65 63
29 36 38 39 39 32 38 40 50 48 33 24 24 24 31 33 31 35 5 18 17 40 71 87 78 66 60 54 56 60 61 62 64 62 61 58 61 64 65 67 70 72 71 70
36 19 24 29 29 24 33 41 48 38 48 26 20 15 27 29 29 28 21 12 28 34 45 47 51 54 53 48 42 43 47 51 61 68 67 65 65 61 59 60 61 61 64 67
36 22 9 17 15 10 25 31 29 37 41 39 23 19 24 27 36 26 17 14 18 25 30 36 49 48 42 39 35 33 34 41 50 57 62 63 65 64 61 59 51 48 51 58
53 37 11 5 6 9 9 15 38 33 34 34 26 21 21 21 18 22 22 19 22 21 36 39 40 43 45 36 28 27 33 32 37 42 44 53 58 59 58 59 56 49 48 51
76 56 42 16 14 19 15 19 18 29 51 49 38 24 18 18 14 18 15 15 18 23 27 22 22 26 25 25 24 28 29 32 36 34 35 41 43 46 52 53 53 53 53 49
58 70 59 28 23 19 27 32 36 31 29 42 46 23 33 34 33 32 30 11 27 27 38 25 18 13 12 13 19 23 25 26 27 26 25 26 29 34 38 37 38 42 43 38
62 51 75 61 25 15 3 7 19 24 32 41 45 51 47 50 49 51 38 43 52 58 54 37 29 23 20 24 29 29 27 26 25 23 20 15 10 10 9 12 16 19 24 27
Wind_Direction_500mb
266 252 275 189 189 201 204 198 202 228 201 212 190 172 190 191 185 186 191 193 192 191 195 195 197 195 190 188 186 193 177 173 167 164 149 135 107 93 94 85 89 116 135 143
259 243 241 250 248 202 215 209 227 194 223 205 204 189 152 179 185 183 192 196 195 197 199 198 197 195 192 188 186 194 189 177 166 169 155 145 135 118 104 90 73 96 125 142
278 230 239 252 239 225 208 206 199 208 222 152 152 169 176 179 190 189 196 198 199 200 202 201 198 195 193 188 182 192 193 183 170 172 161 154 151 127 109 95 78 90 120 116
276 203 206 247 222 223 212 215 215 159 177 178 178 188 191 197 195 198 200 201 204 202 204 205 200 197 192 190 187 192 194 190 181 181 176 171 168 151 128 98 96 106 124 98
251 249 275 235 234 195 176 245 212 212 206 189 187 162 200 203 206 202 206 206 205 207 203 206 202 199 194 193 194 194 196 194 188 186 185 180 175 166 149 122 112 114 104 112
276 237 212 32 331 342 119 239 208 210 190 179 141 179 219 208 209 207 211 209 207 210 207 207 205 201 198 196 197 197 198 194 191 189 190 183 185 181 169 147 130 136 122 111
262 287 296 345 325 304 183 258 320 211 187 171 180 187 202 209 210 210 214 212 209 213 209 208 205 202 201 201 202 198 195 195 188 192 192 192 193 193 184 177 163 162 158 141
200 240 252 348 17 49 313 321 308 294 203 185 193 194 202 199 206 208 213 210 211 211 214 210 206 204 204 207 203 198 196 194 189 191 190 192 197 196 197 197 189 173 176 166
271 267 44 345 342 333 328 326 324 319 300 213 202 200 204 200 202 204 210 212 211 210 214 213 208 207 206 209 203 199 197 195 191 194 189 190 194 197 198 204 206 191 181 183
310 39 333 313 335 343 344 336 333 335 324 239 218 210 200 197 201 202 208 211 209 209 213 214 210 210 213 209 204 199 198 196 193 196 197 193 195 201 204 205 208 206 196 190
281 285 309 225 328 331 334 341 355 12 18 267 225 217 213 204 200 203 205 209 208 209 208 213 213 210 212 212 206 201 200 198 194 197 204 203 204 203 208 216 217 211 207 203
326 311 293 284 312 320 333 343 351 3 20 38 194 216 201 193 194 196 201 205 207 207 206 209 213 211 214 213 208 204 202 201 200 199 207 210 211 211 215 217 220 224 225 216
234 302 299 291 319 320 333 345 353 9 15 27 63 165 208 193 191 195 196 201 206 203 205 208 213 211 214 214 209 209 207 204 204 204 209 215 216 216 215 213 213 217 220 222
265 286 296 300 308 327 329 339 350 14 19 30 43 83 138 199 200 196 199 203 205 204 203 206 212 212 214 214 211 212 213 213 208 207 208 216 221 222 221 219 214 215 214 217
350 295 305 283 306 310 327 331 350 4 9 23 32 48 83 124 179 199 201 205 202 204 202 206 210 211 212 215 212 214 215 215 214 214 214 216 222 225 226 225 224 228 226 223
312 296 313 278 289 304 326 327 342 353 11 19 26 30 42 87 136 171 197 208 208 205 203 208 209 211 210 214 215 216 219 221 220 219 219 220 224 228 229 229 230 232 231 231
305 297 257 285 292 297 317 311 314 334 356 20 31 34 37 95 130 133 154 195 215 219 205 209 208 208 208 210 216 218 221 223 225 226 225 225 226 230 232 233 235 235 237 238
296 292 277 265 281 299 294 291 290 320 341 9 19 26 36 40 70 113 128 186 204 214 221 205 204 201 206 213 214 217 221 224 227 230 231 230 232 234 237 239 240 241 242 241
297 286 279 264 257 259 268 284 279 297 313 350 8 19 20 39 34 185 163 165 199 220 228 211 199 199 206 207 213 217 221 225 227 230 233 234 235 238 240 242 244 245 245 244
284 278 267 249 249 249 253 263 272 272 293 322 343 353 3 29 33 29 250 236 270 251 241 226 202 200 202 204 213 219 223 229 230 232 235 236 236 238 240 244 247 249 249 248
309 276 259 247 239 236 250 251 243 244 243 273 314 357 337 350 19 26 48 233 246 251 256 238 206 204 205 215 224 227 229 231 233 233 234 238 239 241 245 249 251 253 254 256
346 308 259 241 234 263 238 244 246 246 243 245 265 288 321 338 332 11 25 162 223 219 189 182 198 203 203 203 212 225 234 239 242 241 239 238 241 246 250 255 256 258 259 259
355 353 270 235 277 288 238 252 252 243 244 240 233 272 306 297 330 332 353 283 291 275 210 179 178 181 185 193 197 204 222 240 242 243 243 245 248 250 250 253 256 257 258 258
11 6 8 216 261 199 194 229 208 214 230 216 227 251 270 255 306 254 2 355 255 247 235 216 189 181 180 184 198 219 229 233 240 240 241 244 248 250 250 252 255 256 254 258
19 21 17 348 274 259 225 212 206 217 226 234 237 217 227 229 247 295 264 337 294 236 240 220 205 216 202 200 210 215 218 227 235 243 245 242 243 247 249 250 249 249 251 252
19 18 15 11 355 300 253 241 241 245 235 227 229 235 245 247 246 249 251 341 302 240 209 209 191 221 253 244 223 207 199 194 197 205 218 236 245 248 248 246 243 243 245 246
22 16 19 23 30 21 30 212 228 238 237 231 227 228 230 229 235 233 216 224 231 240 246 233 212 206 177 156 170 167 166 168 171 175 176 180 202 218 222 225 223 227 231 239
Wind_Speed_850mb
35 40 17 8 23 45 36 27 31 28 18 18 23 24 26 51 55 57 62 69 73 69 67 61 59 51 39 29 34 29 17 14 13 13 17 16 15 17 18 21 21 22 20 21
13 35 47 36 11 41 45 29 24 14 16 18 23 28 30 52 58 58 70 75 74 69 69 66 61 55 46 35 37 35 24 18 16 18 24 20 16 17 17 17 19 18 23 14
11 27 17 29 53 24 25 37 35 31 23 15 9 24 34 46 62 69 77 78 77 76 72 69 63 56 52 44 35 38 31 24 17 27 27 23 18 17 17 17 16 17 22 15
10 4 22 37 23 35 23 16 28 7 21 30 29 55 73 86 91 79 77 79 75 75 72 70 63 57 52 50 40 39 39 32 24 31 29 26 22 19 16 15 15 16 15 15
6 8 10 14 7 24 19 25 21 34 17 23 47 37 18 74 87 89 85 78 72 70 66 69 67 60 58 57 48 44 45 38 32 28 35 31 25 21 16 12 16 20 20 21
4 8 15 11 28 5 11 26 18 28 20 20 30 23 15 76 84 88 86 78 73 71 71 69 70 65 64 61 57 51 48 39 35 28 40 36 29 24 18 13 13 17 19 21
11 8 8 36 40 26 25 5 38 41 36 25 25 32 72 72 87 90 84 83 77 72 72 73 72 69 70 66 62 49 44 41 37 31 40 41 36 30 26 20 14 18 18 19
8 9 6 43 15 15 22 55 51 48 54 57 74 63 64 62 80 87 91 83 80 75 73 74 75 73 74 71 57 51 51 45 42 38 40 43 41 38 32 26 20 22 25 23
7 5 3 37 18 39 47 46 52 54 40 70 84 62 64 66 76 86 91 88 85 81 76 75 77 77 77 71 64 56 57 50 46 44 38 44 44 45 41 34 30 30 29 30
12 3 21 43 36 58 58 55 60 49 37 39 64 68 62 61 81 85 85 87 90 86 79 76 77 79 74 70 66 60 59 54 49 50 48 44 43 44 45 43 38 38 38 33
11 19 37 10 63 70 76 79 81 62 48 11 50 65 68 68 77 79 78 83 91 93 84 75 74 81 80 75 70 67 62 58 53 53 55 50 45 43 41 43 40 43 44 39
3 31 22 34 63 72 73 87 85 66 62 35 18 50 69 69 73 76 75 81 89 95 85 77 74 81 80 80 74 70 70 65 59 57 60 59 53 49 46 35 37 36 37 37
8 32 43 58 52 38 67 69 70 55 48 49 25 24 20 71 76 75 72 77 86 94 85 77 76 79 78 80 77 76 73 68 64 61 60 62 62 56 50 42 39 38 39 43
26 32 36 43 39 56 59 57 57 53 44 49 33 20 18 32 57 67 73 66 78 92 88 76 77 75 71 77 80 79 74 67 64 64 62 62 63 59 54 47 46 47 48 51
16 25 40 58 60 54 49 44 58 63 62 60 41 32 21 20 34 49 61 61 79 90 84 79 76 72 70 73 81 82 80 75 71 65 62 61 62 64 60 56 50 45 45 52
40 39 30 37 53 44 44 38 52 58 59 52 45 40 23 17 22 38 45 50 64 85 86 82 70 67 71 70 76 82 81 75 73 72 69 66 65 68 68 64 58 52 47 48
30 23 20 29 47 48 43 39 41 43 48 39 57 48 26 11 21 28 24 45 53 76 84 74 64 65 66 66 70 76 79 80 79 77 75 71 68 67 67 68 65 60 51 46
43 45 40 48 53 46 52 36 41 39 33 35 44 53 46 31 12 15 14 32 49 67 79 70 67 62 58 65 67 70 72 72 76 78 77 77 75 70 67 66 66 65 56 49
39 45 41 44 50 49 50 42 48 35 26 28 35 46 43 38 34 3 8 15 18 44 74 78 65 55 52 53 61 67 67 67 70 73 73 74 74 70 67 66 67 66 62 57
44 43 40 43 50 38 44 48 48 35 24 25 28 33 39 33 35 26 12 26 8 27 58 81 74 60 53 49 52 59 57 61 64 64 64 65 68 69 68 67 66 65 65 63
29 36 38 39 39 32 38 40 50 48 33 24 24 24 31 33 31 35 5 18 17 40 71 87 78 66 60 54 56 60 61 62 64 62 61 58 61 64 65 67 70 72 71 70
36 19 24 29 29 24 33 41 48 38 48 26 20 15 27 29 29 28 21 12 28 34 45 47 51 54 53 48 42 43 47 51 61 68 67 65 65 61 59 60 61 61 64 67
36 22 9 17 15 10 25 31 29 37 41 39 23 19 24 27 36 26 17 14 18 25 30 36 49 48 42 39 35 33 34 41 50 57 62 63 65 64 61 59 51 48 51 58
53 37 11 5 6 9 9 15 38 33 34 34 26 21 21 21 18 22 22 19 22 21 36 39 40 43 45 36 28 27 33 32 37 42 44 53 58 59 58 59 56 49 48 51
76 56 42 16 14 19 15 19 18 29 51 49 38 24 18 18 14 18 15 15 18 23 27 22 22 26 25 25 24 28 29 32 36 34 35 41 43 46 52 53 53 53 53 49
58 70 59 28 23 19 27 32 36 31 29 42 46 23 33 34 33 32 30 11 27 27 38 25 18 13 12 13 19 23 25 26 27 26 25 26 29 34 38 37 38 42 43 38
62 51 75 61 25 15 3 7 19 24 32 41 45 51 47 50 49 51 38 43 52 58 54 37 29 23 20 24 29 29 27 26 25 23 20 15 10 10 9 12 16 19 24 27
Wind_Direction_850mb
266 252 275 189 189 201 204 198 202 228 201 212 190 172 190 191 185 186 191 193 192 191 195 195 197 195 190 188 186 193 177 173 167 164 149 135 107 93 94 85 89 116 135 143
259 243 241 250 248 202 215 209 227 194 223 205 204 189 152 179 185 183 192 196 195 197 199 198 197 195 192 188 186 194 189 177 166 169 155 145 135 118 104 90 73 96 125 142
278 230 239 252 239 225 208 206 199 208 222 152 152 169 176 179 190 189 196 198 199 200 202 201 198 195 193 188 182 192 193 183 170 172 161 154 151 127 109 95 78 90 120 116
276 203 206 247 222 223 212 215 215 159 177 178 178 188 191 197 195 198 200 201 204 202 204 205 200 197 192 190 187 192 194 190 181 181 176 171 168 151 128 98 96 106 124 98
251 249 275 235 234 195 176 245 212 212 206 189 187 162 200 203 206 202 206 206 205 207 203 206 202 199 194 193 194 194 196 194 188 186 185 180 175 166 149 122 112 114 104 112
276 237 212 32 331 342 119 239 208 210 190 179 141 179 219 208 209 207 211 209 207 210 207 207 205 201 198 196 197 197 198 194 191 189 190 183 185 181 169 147 130 136 122 111
262 287 296 345 325 304 183 258 320 211 187 171 180 187 202 209 210 210 214 212 209 213 209 208 205 202 201 201 202 198 195 195 188 192 192 192 193 193 184 177 163 162 158 141
200 240 252 348 17 49 313 321 308 294 203 185 193 194 202 199 206 208 213 210 211 211 214 210 206 204 204 207 203 198 196 194 189 191 190 192 197 196 197 197 189 173 176 166
271 267 44 345 342 333 328 326 324 319 300 213 202 200 204 200 202 204 210 212 211 210 214 213 208 207 206 209 203 199 197 195 191 194 189 190 194 197 198 204 206 191 181 183
310 39 333 313 335 343 344 336 333 335 324 239 218 210 200 197 201 202 208 211 209 209 213 214 210 210 213 209 204 199 198 196 193 196 197 193 195 201 204 205 208 206 196 190
281 285 309 225 328 331 334 341 355 12 18 267 225 217 213 204 200 203 205 209 208 209 208 213 213 210 212 212 206 201 200 198 194 197 204 203 204 203 208 216 217 211 207 203
326 311 293 284 312 320 333 343 351 3 20 38 194 216 201 193 194 196 201 205 207 207 206 209 213 211 214 213 208 204 202 201 200 199 207 210 211 211 215 217 220 224 225 216
234 302 299 291 319 320 333 345 353 9 15 27 63 165 208 193 191 195 196 201 206 203 205 208 213 211 214 214 209 209 207 204 204 204 209 215 216 216 215 213 213 217 220 222
265 286 296 300 308 327 329 339 350 14 19 30 43 83 138 199 200 196 199 203 205 204 203 206 212 212 214 214 211 212 213 213 208 207 208 216 221 222 221 219 214 215 214 217
350 295 305 283 306 310 327 331 350 4 9 23 32 48 83 124 179 199 201 205 202 204 202 206 210 211 212 215 212 214 215 215 214 214 214 216 222 225 226 225 224 228 226 223
312 296 313 278 289 304 326 327 342 353 11 19 26 30 42 87 136 171 197 208 208 205 203 208 209 211 210 214 215 216 219 221 220 219 219 220 224 228 229 229 230 232 231 231
305 297 257 285 292 297 317 311 314 334 356 20 31 34 37 95 130 133 154 195 215 219 205 209 208 208 208 210 216 218 221 223 225 226 225 225 226 230 232 233 235 235 237 238
296 292 277 265 281 299 294 291 290 320 341 9 19 26 36 40 70 113 128 186 204 214 221 205 204 201 206 213 214 217 221 224 227 230 231 230 232 234 237 239 240 241 242 241
297 286 279 264 257 259 268 284 279 297 313 350 8 19 20 39 34 185 163 165 199 220 228 211 199 199 206 207 213 217 221 225 227 230 233 234 235 238 240 242 244 245 245 244
284 278 267 249 249 249 253 263 272 272 293 322 343 353 3 29 33 29 250 236 270 251 241 226 202 200 202 204 213 219 223 229 230 232 235 236 236 238 240 244 247 249 249 248
309 276 259 247 239 236 250 251 243 244 243 273 314 357 337 350 19 26 48 233 246 251 256 238 206 204 205 215 224 227 229 231 233 233 234 238 239 241 245 249 251 253 254 256
346 308 259 241 234 263 238 244 246 246 243 245 265 288 321 338 332 11 25 162 223 219 189 182 198 203 203 203 212 225 234 239 242 241 239 238 241 246 250 255 256 258 259 259
355 353 270 235 277 288 238 252 252 243 244 240 233 272 306 297 330 332 353 283 291 275 210 179 178 181 185 193 197 204 222 240 242 243 243 245 248 250 250 253 256 257 258 258
11 6 8 216 261 199 194 229 208 214 230 216 227 251 270 255 306 254 2 355 255 247 235 216 189 181 180 184 198 219 229 233 240 240 241 244 248 250 250 252 255 256 254 258
19 21 17 348 274 259 225 212 206 217 226 234 237 217 227 229 247 295 264 337 294 236 240 220 205 216 202 200 210 215 218 227 235 243 245 242 243 247 249 250 249 249 251 252
19 18 15 11 355 300 253 241 241 245 235 227 229 235 245 247 246 249 251 341 302 240 209 209 191 221 253 244 223 207 199 194 197 205 218 236 245 248 248 246 243 243 245 246
22 16 19 23 30 21 30 212 228 238 237 231 227 228 230 229 235 233 216 224 231 240 246 233 212 206 177 156 170 167 166 168 171 175 176 180 202 218 222 225 223 227 231 239